Time,TemperatureF,DewpointF,PressureIn,WindDirection,WindDirectionDegrees,WindSpeedMPH,WindSpeedGustMPH,Humidity,HourlyPrecipIn,Conditions,Clouds,dailyrainin,SoftwareType,DateUTC
2013-06-16 00:00:00,63.7,15.2,29.69,SW,234,0.0,1.0,15,0.00,,SKC,0.00,VWS V12.07,2013-06-16 06:00:00,
2013-06-16 00:30:00,64.3,15.7,29.69,SW,234,0.0,0.0,15,0.00,,SKC,0.00,VWS V12.07,2013-06-16 06:30:00,
2013-06-16 01:00:00,64.2,14.0,29.67,SW,234,0.0,0.0,14,0.00,,SKC,0.00,VWS V12.07,2013-06-16 07:00:00,
2013-06-16 01:30:00,65.2,16.4,29.66,SW,234,0.0,0.0,15,0.00,,SKC,0.00,VWS V12.07,2013-06-16 07:30:00,
2013-06-16 02:00:00,66.1,15.6,29.63,SW,234,0.0,0.0,14,0.00,,SKC,0.00,VWS V12.07,2013-06-16 08:00:00,
2013-06-16 02:30:00,63.1,16.2,29.63,SW,234,0.0,0.0,16,0.00,,SKC,0.00,VWS V12.07,2013-06-16 08:30:00,
2013-06-16 03:00:00,59.5,21.7,29.66,SW,234,0.0,0.0,23,0.00,,SKC,0.00,VWS V12.07,2013-06-16 09:00:00,
2013-06-16 03:01:00,62.9,20.0,29.63,SW,234,0.0,0.0,19,0.00,,SKC,0.00,VWS V12.07,2013-06-16 09:01:00,
2013-06-16 03:30:00,59.3,23.5,29.66,SW,234,0.0,0.0,25,0.00,,SKC,0.00,VWS V12.07,2013-06-16 09:30:00,
2013-06-16 04:00:00,60.5,20.4,29.66,SW,234,0.0,0.0,21,0.00,,SKC,0.00,VWS V12.07,2013-06-16 10:00:00,
2013-06-16 04:30:00,58.7,23.9,29.66,SW,234,0.0,0.0,26,0.00,,SKC,0.00,VWS V12.07,2013-06-16 10:30:00,
2013-06-16 05:00:00,59.9,21.0,29.66,SW,234,0.0,0.0,22,0.00,,SKC,0.00,VWS V12.07,2013-06-16 11:00:00,
2013-06-16 05:30:00,60.4,22.5,29.67,SW,234,0.0,0.0,23,0.00,,SKC,0.00,VWS V12.07,2013-06-16 11:30:00,
2013-06-16 06:00:00,60.4,21.4,29.70,SW,234,0.0,0.0,22,0.00,,SKC,0.00,VWS V12.07,2013-06-16 12:00:00,
2013-06-16 06:01:00,59.6,20.7,29.70,SW,234,0.0,0.0,22,0.00,,SKC,0.00,VWS V12.07,2013-06-16 12:01:00,
2013-06-16 06:30:00,59.9,21.0,29.70,SW,234,0.0,0.0,22,0.00,,SKC,0.00,VWS V12.07,2013-06-16 12:30:00,
2013-06-16 07:00:00,60.9,20.7,29.69,SW,232,0.0,0.0,21,0.00,,SKC,0.00,VWS V12.07,2013-06-16 13:00:00,
2013-06-16 07:30:00,58.9,29.1,29.71,SW,233,0.0,0.0,32,0.00,,SKC,0.00,VWS V12.07,2013-06-16 13:30:00,
2013-06-16 08:00:00,65.2,34.6,29.73,SW,233,0.0,0.0,32,0.00,,SKC,0.00,VWS V12.07,2013-06-16 14:00:00,
2013-06-16 08:30:00,70.6,31.0,29.70,SW,232,0.0,0.0,23,0.00,,SKC,0.00,VWS V12.07,2013-06-16 14:30:00,
2013-06-16 09:00:00,73.3,33.3,29.69,SW,232,0.0,0.0,23,0.00,,SKC,0.00,VWS V12.07,2013-06-16 15:00:00,
2013-06-16 09:30:00,73.2,40.8,29.72,ESE,122,0.0,0.0,31,0.00,,SKC,0.00,VWS V12.07,2013-06-16 15:30:00,
2013-06-16 10:00:00,75.3,32.7,29.71,ESE,119,0.0,0.0,21,0.00,,SKC,0.00,VWS V12.07,2013-06-16 16:00:00,
2013-06-16 10:30:00,75.8,24.9,29.73,East,100,0.0,2.0,15,0.00,,SKC,0.00,VWS V12.07,2013-06-16 16:30:00,
2013-06-16 11:00:00,77.2,31.8,29.71,ENE,77,0.0,4.0,19,0.00,,SKC,0.00,VWS V12.07,2013-06-16 17:00:00,
2013-06-16 11:01:00,76.5,29.9,29.70,SE,128,0.0,4.0,18,0.00,,SKC,0.00,VWS V12.07,2013-06-16 17:01:00,
2013-06-16 11:30:00,77.9,31.0,29.71,SSE,147,0.0,4.0,18,0.00,,SKC,0.00,VWS V12.07,2013-06-16 17:30:00,
2013-06-16 11:47:00,78.3,29.9,29.70,ENE,63,0.0,9.0,17,0.00,,SKC,0.00,VWS V12.07,2013-06-16 17:47:00,
2013-06-16 12:00:00,80.3,23.1,29.69,East,90,0.0,10.0,12,0.00,,SKC,0.00,VWS V12.07,2013-06-16 18:00:00,
2013-06-16 13:00:00,82.0,26.4,29.66,North,0,0.0,7.0,13,0.00,,SKC,0.00,VWS V12.07,2013-06-16 19:00:00,
2013-06-16 14:00:00,82.8,23.0,29.65,NNE,22,0.0,9.0,11,0.00,,SKC,0.00,VWS V12.07,2013-06-16 20:00:00,
2013-06-16 15:00:00,84.0,21.6,29.65,North,0,0.0,5.0,10,0.00,,SKC,0.00,VWS V12.07,2013-06-16 21:00:00,
2013-06-16 16:00:00,85.7,22.9,29.62,NNW,338,0.0,3.0,10,0.00,,SKC,0.00,VWS V12.07,2013-06-16 22:00:00,
2013-06-16 17:00:00,84.3,26.2,29.63,NE,45,0.0,10.0,12,0.00,,SKC,0.00,VWS V12.07,2013-06-16 23:00:00,
2013-06-16 18:00:00,84.0,13.4,29.63,North,0,0.0,3.0,7,0.00,,SKC,0.00,VWS V12.07,2013-06-17 00:00:00,
2013-06-16 19:00:00,82.6,20.6,29.63,West,270,0.0,1.0,10,0.00,,SKC,0.00,VWS V12.07,2013-06-17 01:00:00,
2013-06-16 20:00:00,77.4,33.2,29.61,NNE,22,0.0,1.0,20,0.00,,SKC,0.00,VWS V12.07,2013-06-17 02:00:00,
2013-06-16 21:00:00,72.0,10.1,29.63,SW,225,0.0,1.0,9,0.00,,SKC,0.00,VWS V12.07,2013-06-17 03:00:00,
2013-06-16 22:00:00,66.8,17.7,29.66,West,270,0.0,2.0,15,0.00,,SKC,0.00,VWS V12.07,2013-06-17 04:00:00,
2013-06-16 23:00:00,66.9,14.5,29.66,SSW,202,0.0,1.0,13,0.00,,SKC,0.00,VWS V12.07,2013-06-17 05:00:00,